Location: Ambrosina
(19.9365°S, 43.9833°W)
Time: 01:33:19
(UTC+00:00)

FUSE - Pass Details

Date: 11 May 2021
Orbit: 742 x 756 km, 25.0° (Epoch: 20 June)

Event Time Altitude Azimuth Distance (km) Brightness Sun altitude
Rises 21:32:51 0° 300° (WNW) 3,172 8.8 -15.3°
Reaches altitude 10° 21:35:21 10° 304° (NW) 2,249 7.6 -15.8°
Maximum altitude 21:40:34 56° 21° (NNE) 882 4.2 -17.0°
Enters shadow 21:43:03 29° 86° (E) 1,325 4.7 -17.6°
